Weather History for Akron, CO

Change the Weather History Date:

Thursday, January 30, 2014

  Actual Average Record
Temperature  
Mean Temperature 33 °F 29 °F  
Max Temperature 47 °F 40 °F 65 °F (1971)
Min Temperature 19 °F 17 °F -10 °F (1945)
Degree Days  
Heating Degree Days 32    
Month to date heating degree days 1079  
Cooling Degree Days 0    
Month to date cooling degree days 0  
Moisture  
Dew Point 26 °F    
Average Humidity 69    
Maximum Humidity 100    
Minimum Humidity 37    
Precipitation  
Precipitation 0.09 in 0.02 in 0.48 in (1941)
Month to date precipitation 0.21 0.29  
Year to date precipitation 0.21 0.29  
Sea Level Pressure  
Sea Level Pressure 29.70 in    
Wind  
Wind Speed 16 mph (ENE)    
Max Wind Speed 40 mph    
Max Gust Speed 49 mph    
Visibility 5 miles    
Events Fog , Rain , Snow    
T = Trace of Precipitation, MM = Missing Value Source: NWS Daily Summary

Daily Weather History Graph

Daily Weather History Graph

Search for Another Location

Airport:

Trip Planner

Search our weather history database for the weather conditions in past years. The results will help you decide how hot, cold, wet, or windy it might be!

Date:

Astronomy

Jan. 30, 2014 Rise Set
Actual Time 7:03 AM MST 5:09 PM MST
Civil Twilight 6:34 AM MST 5:38 PM MST
Nautical Twilight 6:02 AM MST 6:10 PM MST
Astronomical Twilight 5:30 AM MST 6:42 PM MST
Moon 6:31 AM MST (1/30) 5:23 PM MST (1/30)
Length of Visible Light 11h 03m
Length of Day
10h 05m
Waning Crescent, 0% of the Moon is Illuminated
Jan 30
Waning Crescent
Jan 30
New
Feb 6
First Quarter
Feb 14
Full
Feb 22
Last Quarter

Hourly Weather History & Observations

Time (MST) Temp. Windchill Dew Point Humidity Pressure Visibility Wind Dir Wind Speed Gust Speed Precip Events Conditions
12:53 AM 44.1 °F 36.8 °F 27.0 °F 51% 29.41 in 10.0 mi West 16.1 mph - N/A   Overcast
1:53 AM 39.9 °F 32.5 °F 28.0 °F 63% 29.44 in 10.0 mi West 12.7 mph - N/A   Mostly Cloudy
2:53 AM 43.0 °F 32.5 °F 30.0 °F 60% 29.49 in 10.0 mi NW 29.9 mph 38.0 mph N/A   Scattered Clouds
3:53 AM 36.0 °F 23.9 °F 32.0 °F 86% 29.57 in 10.0 mi NNW 25.3 mph 35.7 mph N/A   Overcast
4:53 AM 35.1 °F 25.2 °F 30.9 °F 85% 29.62 in 10.0 mi North 16.1 mph - N/A   Overcast
5:53 AM 34.0 °F 23.8 °F 28.9 °F 82% 29.65 in 10.0 mi NNW 16.1 mph - N/A   Overcast
6:53 AM 33.1 °F 22.6 °F 28.9 °F 85% 29.65 in 10.0 mi NNW 16.1 mph - N/A   Mostly Cloudy
7:53 AM 34.0 °F 25.0 °F 28.9 °F 82% 29.66 in 10.0 mi NNW 12.7 mph - N/A   Mostly Cloudy
8:53 AM 37.0 °F 27.7 °F 28.9 °F 73% 29.66 in 10.0 mi NNW 16.1 mph - N/A   Mostly Cloudy
9:53 AM 42.1 °F 33.9 °F 28.9 °F 60% 29.67 in 10.0 mi NNW 17.3 mph - N/A   Partly Cloudy
10:53 AM 45.0 °F 35.8 °F 24.1 °F 44% 29.66 in 10.0 mi NNW 26.5 mph 31.1 mph N/A   Clear
11:53 AM 46.0 °F 37.8 °F 21.0 °F 37% 29.65 in 10.0 mi NNW 23.0 mph - N/A   Mostly Cloudy
12:53 PM 46.0 °F 38.8 °F 21.0 °F 37% 29.62 in 10.0 mi NNW 18.4 mph 28.8 mph N/A   Overcast
1:53 PM 44.1 °F 36.8 °F 21.0 °F 40% 29.64 in 10.0 mi North 16.1 mph - N/A   Overcast
2:24 PM 39.9 °F 31.8 °F 28.0 °F 63% 29.66 in 10.0 mi East 15.0 mph 23.0 mph N/A   Overcast
2:53 PM 37.9 °F 28.9 °F 28.0 °F 68% 29.68 in 10.0 mi ESE 16.1 mph 23.0 mph N/A   Overcast
3:45 PM 37.9 °F 33.5 °F 28.0 °F 68% 29.71 in 6.0 mi NNW 5.8 mph - 0.00 in Snow Light Snow
3:53 PM 37.0 °F 34.5 °F 30.0 °F 76% 29.74 in 9.0 mi Variable 3.5 mph - 0.00 in Rain Light Rain
4:45 PM 33.1 °F 24.4 °F 32.0 °F 96% 29.72 in 2.5 mi SSE 11.5 mph - 0.00 in Snow Light Snow
4:53 PM 33.1 °F 24.9 °F 32.0 °F 96% 29.77 in 1.8 mi South 10.4 mph - 0.00 in Snow Light Snow
5:05 PM 33.1 °F 26.1 °F 32.0 °F 96% 29.73 in 1.8 mi South 8.1 mph - 0.00 in Snow Light Snow
5:09 PM 33.1 °F 26.1 °F 32.0 °F 96% 29.73 in 2.0 mi South 8.1 mph - 0.00 in Snow Light Snow
5:20 PM 32.0 °F 26.4 °F 32.0 °F 100% 29.73 in 3.0 mi South 5.8 mph - 0.00 in Snow Light Snow
5:45 PM 32.0 °F 27.5 °F 32.0 °F 100% 29.73 in 2.0 mi SSE 4.6 mph - 0.00 in Snow Light Snow
5:53 PM 32.0 °F 27.5 °F 32.0 °F 100% 29.78 in 1.8 mi SSE 4.6 mph - 0.01 in Snow Light Snow
6:22 PM 30.9 °F 21.2 °F 30.9 °F 100% 29.75 in 1.0 mi East 12.7 mph - 0.02 in Snow Light Snow
6:53 PM 30.0 °F 19.1 °F 28.9 °F 96% 29.81 in 1.0 mi ESE 15.0 mph - 0.04 in Snow Light Snow
7:31 PM 26.1 °F 13.6 °F 25.0 °F 96% 29.75 in 0.8 mi East 16.1 mph - 0.00 in Snow Light Snow
7:43 PM 25.0 °F 11.7 °F 23.0 °F 92% 29.76 in 1.0 mi East 17.3 mph - 0.02 in Snow Light Snow
7:50 PM 24.8 °F 12.4 °F 23.0 °F 93% 29.76 in 1.2 mi East 15.0 mph - 0.02 in Snow Light Snow
7:53 PM 24.1 °F 11.5 °F 23.0 °F 96% 29.84 in 1.2 mi East 15.0 mph - 0.02 in Snow Light Snow
8:08 PM 24.1 °F 11.0 °F 21.9 °F 91% 29.75 in 1.0 mi East 16.1 mph - 0.00 in Snow Light Snow
8:23 PM 23.0 °F 9.6 °F 21.9 °F 96% 29.75 in 0.8 mi East 16.1 mph - 0.00 in Snow Light Snow
8:46 PM 23.0 °F 9.6 °F 21.0 °F 92% 29.75 in 1.0 mi East 16.1 mph - 0.00 in Snow Light Snow
8:53 PM 23.0 °F 10.1 °F 21.0 °F 92% 29.84 in 0.8 mi East 15.0 mph 23.0 mph 0.00 in Snow Light Snow
9:21 PM 23.0 °F 10.1 °F 21.0 °F 92% 29.75 in 1.0 mi East 15.0 mph - 0.01 in Snow Light Snow
9:28 PM 21.9 °F 8.7 °F 21.0 °F 96% 29.75 in 0.8 mi East 15.0 mph - 0.01 in Snow Light Snow
9:40 PM 21.9 °F 9.2 °F 21.0 °F 96% 29.75 in 1.0 mi East 13.8 mph - 0.01 in Snow Light Snow
9:51 PM 21.2 °F 6.8 °F 19.4 °F 93% 29.75 in 0.8 mi East 17.3 mph - 0.01 in Snow Light Snow
9:53 PM 21.0 °F 6.2 °F 19.9 °F 96% 29.81 in 0.8 mi East 18.4 mph - 0.01 in Snow Light Snow
10:05 PM 21.0 °F 7.1 °F 19.0 °F 92% 29.75 in 0.5 mi East 16.1 mph - 0.00 in Fog , Snow Snow
10:53 PM 19.9 °F 5.7 °F 18.0 °F 92% 29.79 in 0.5 mi East 16.1 mph - 0.01 in Fog , Snow Snow
11:53 PM 19.0 °F 4.0 °F 17.1 °F 92% 29.80 in 0.8 mi East 17.3 mph - 0.00 in Snow Light Snow